Toms River, NJ

10:38 PM EDT on May 27, 2017 (GMT -0400)
Miller

Weather History for KMJX - October, 2013

Change the Weather History Date:

Wednesday, October 9, 2013

  Actual Average Record
Temperature  
Mean Temperature 56 °F -  
Max Temperature 62 °F 68 °F 84 °F (1982)
Min Temperature 50 °F 44 °F 29 °F (1989)
Degree Days  
Heating Degree Days 9    
Growing Degree Days 6 (Base 50)    
Moisture  
Dew Point 48 °F    
Average Humidity 67    
Maximum Humidity 87    
Minimum Humidity 59    
Precipitation  
Precipitation 0.00 in - - ()
Sea Level Pressure  
Sea Level Pressure 30.31 in    
Wind  
Wind Speed 9 mph (ENE)    
Max Wind Speed 21 mph    
Max Gust Speed 30 mph    
Visibility 10 miles    
Events      
Averages and records for this station are not official NWS values.
T = Trace of Precipitation, MM = Missing Value Source: NWS Daily Summary

Daily Weather History Graph

Daily Weather History Graph

Search for Another Location

Airport or City:

Trip Planner

Search our weather history database for the weather conditions in past years. The results will help you decide how hot, cold, wet, or windy it might be!

Date:

Astronomy

Oct. 09, 2013 Rise Set
Actual Time 7:01 AM EDT 6:26 PM EDT
Civil Twilight 6:34 AM EDT 6:53 PM EDT
Nautical Twilight 6:03 AM EDT 7:24 PM EDT
Astronomical Twilight 5:31 AM EDT 7:56 PM EDT
Moon 11:54 AM EDT (10/9) 9:58 PM EDT (10/9)
Length of Visible Light 12h 18m
Length of Day
11h 24m
Waxing Crescent, 25% of the Moon is Illuminated
Oct 9
Waxing Crescent
Oct 11
First Quarter
Oct 18
Full
Oct 26
Last Quarter
Nov 3
New

Hourly Weather History & Observations

Time (EDT) Temp. Dew Point Humidity Pressure Visibility Wind Dir Wind Speed Gust Speed Precip Events Conditions
12:15 AM 51.8 °F 46.4 °F 82% 30.30 in 10.0 mi NNE 3.5 mph - N/A   Clear
12:35 AM 51.8 °F 46.4 °F 82% 30.30 in 10.0 mi NNE 3.5 mph - N/A   Clear
12:55 AM 53.6 °F 46.4 °F 77% 30.30 in 10.0 mi North 3.5 mph - N/A   Clear
1:15 AM 51.8 °F 46.4 °F 82% 30.30 in 10.0 mi Calm Calm - N/A   Clear
1:35 AM 51.8 °F 46.4 °F 82% 30.30 in 10.0 mi Calm Calm - N/A   Clear
1:55 AM 51.8 °F 46.4 °F 82% 30.31 in 10.0 mi North 3.5 mph - N/A   Clear
2:15 AM 51.8 °F 46.4 °F 82% 30.31 in 10.0 mi Calm Calm - N/A   Clear
2:35 AM 51.8 °F 46.4 °F 82% 30.30 in 10.0 mi Calm Calm - N/A   Clear
2:55 AM 51.8 °F 46.4 °F 82% 30.29 in 10.0 mi NNE 3.5 mph - N/A   Clear
3:15 AM 50.0 °F 46.4 °F 87% 30.29 in 10.0 mi Calm Calm - N/A   Partly Cloudy
3:35 AM 51.8 °F 46.4 °F 82% 30.28 in 10.0 mi Calm Calm - N/A   Mostly Cloudy
3:55 AM 57.2 °F 51.8 °F 82% 30.29 in 10.0 mi ENE 5.8 mph - N/A   Mostly Cloudy
4:15 AM 59.0 °F 50.0 °F 72% 30.29 in 10.0 mi ENE 6.9 mph - N/A   Scattered Clouds
4:35 AM 60.8 °F 51.8 °F 72% 30.29 in 10.0 mi ENE 6.9 mph 17.3 mph N/A   Mostly Cloudy
4:55 AM 60.8 °F 48.2 °F 63% 30.30 in 10.0 mi ENE 10.4 mph - N/A   Scattered Clouds
5:15 AM 59.0 °F 44.6 °F 59% 30.30 in 10.0 mi ENE 8.1 mph - N/A   Clear
5:35 AM 57.2 °F 44.6 °F 63% 30.29 in 10.0 mi ENE 10.4 mph - N/A   Clear
5:55 AM 59.0 °F 44.6 °F 59% 30.29 in 10.0 mi ENE 8.1 mph - N/A   Clear
6:15 AM 57.2 °F 44.6 °F 63% 30.30 in 10.0 mi ENE 6.9 mph - N/A   Clear
6:35 AM 59.0 °F 46.4 °F 63% 30.30 in 10.0 mi ENE 8.1 mph - N/A   Partly Cloudy
6:55 AM 59.0 °F 48.2 °F 67% 30.30 in 10.0 mi ENE 8.1 mph - N/A   Scattered Clouds
7:15 AM 59.0 °F 48.2 °F 67% 30.31 in 10.0 mi ENE 12.7 mph 16.1 mph N/A   Mostly Cloudy
7:35 AM 59.0 °F 48.2 °F 67% 30.32 in 10.0 mi ENE 11.5 mph 18.4 mph N/A   Mostly Cloudy
7:55 AM 59.0 °F 46.4 °F 63% 30.33 in 10.0 mi NE 13.8 mph 18.4 mph N/A   Partly Cloudy
8:15 AM 59.0 °F 48.2 °F 67% 30.33 in 10.0 mi ENE 10.4 mph 18.4 mph N/A   Scattered Clouds
8:35 AM 59.0 °F 48.2 °F 67% 30.34 in 10.0 mi ENE 10.4 mph - N/A   Mostly Cloudy
9:15 AM 60.8 °F 48.2 °F 63% 30.34 in 10.0 mi ENE 13.8 mph 20.7 mph N/A   Mostly Cloudy
9:35 AM 60.8 °F 48.2 °F 63% 30.34 in 10.0 mi NE 17.3 mph 21.9 mph N/A   Mostly Cloudy
9:55 AM 60.8 °F 48.2 °F 63% 30.34 in 10.0 mi ENE 17.3 mph 24.2 mph N/A   Mostly Cloudy
10:15 AM 60.8 °F 48.2 °F 63% 30.35 in 10.0 mi ENE 9.2 mph 24.2 mph N/A   Overcast
10:35 AM 60.8 °F 48.2 °F 63% 30.35 in 10.0 mi ENE 13.8 mph 25.3 mph N/A   Overcast
10:55 AM 60.8 °F 48.2 °F 63% 30.35 in 10.0 mi ENE 18.4 mph 26.5 mph N/A   Overcast
11:15 AM 60.8 °F 46.4 °F 59% 30.35 in 10.0 mi ENE 12.7 mph 21.9 mph N/A   Mostly Cloudy
11:35 AM 60.8 °F 48.2 °F 63% 30.35 in 10.0 mi NE 15.0 mph 23.0 mph N/A   Mostly Cloudy
11:55 AM 60.8 °F 48.2 °F 63% 30.34 in 10.0 mi NE 20.7 mph 24.2 mph N/A   Overcast
12:15 PM 60.8 °F 50.0 °F 68% 30.34 in 10.0 mi ENE 13.8 mph 27.6 mph N/A   Overcast
12:35 PM 62.6 °F 48.2 °F 59% 30.34 in 10.0 mi ENE 17.3 mph 27.6 mph N/A   Mostly Cloudy
12:55 PM 62.6 °F 48.2 °F 59% 30.34 in 10.0 mi ENE 15.0 mph 26.5 mph N/A   Mostly Cloudy
1:15 PM 62.6 °F 48.2 °F 59% 30.33 in 10.0 mi ENE 11.5 mph 21.9 mph N/A   Overcast
1:35 PM 62.6 °F 48.2 °F 59% 30.33 in 10.0 mi ENE 18.4 mph 24.2 mph N/A   Overcast
1:55 PM 60.8 °F 48.2 °F 63% 30.33 in 10.0 mi ENE 16.1 mph 25.3 mph N/A   Overcast
2:15 PM 62.6 °F 48.2 °F 59% 30.32 in 10.0 mi ENE 15.0 mph 29.9 mph N/A   Mostly Cloudy
2:35 PM 62.6 °F 48.2 °F 59% 30.33 in 10.0 mi ENE 18.4 mph 26.5 mph N/A   Mostly Cloudy
2:55 PM 60.8 °F 48.2 °F 63% 30.33 in 10.0 mi NE 19.6 mph 25.3 mph N/A   Overcast
3:15 PM 60.8 °F 48.2 °F 63% 30.33 in 10.0 mi ENE 15.0 mph 20.7 mph N/A   Overcast
3:35 PM 60.8 °F 48.2 °F 63% 30.32 in 10.0 mi NE 16.1 mph 24.2 mph N/A   Overcast
3:55 PM 60.8 °F 48.2 °F 63% 30.32 in 10.0 mi NE 15.0 mph 23.0 mph N/A   Overcast
4:15 PM 60.8 °F 48.2 °F 63% 30.32 in 10.0 mi ENE 13.8 mph 19.6 mph N/A   Overcast
4:35 PM 60.8 °F 48.2 °F 63% 30.31 in 10.0 mi ENE 17.3 mph 24.2 mph N/A   Overcast
4:55 PM 60.8 °F 48.2 °F 63% 30.31 in 10.0 mi ENE 13.8 mph 20.7 mph N/A   Overcast
5:15 PM 60.8 °F 48.2 °F 63% 30.31 in 10.0 mi ENE 18.4 mph 24.2 mph N/A   Mostly Cloudy
5:35 PM 60.8 °F 48.2 °F 63% 30.31 in 10.0 mi ENE 13.8 mph 21.9 mph N/A   Mostly Cloudy
5:55 PM 60.8 °F 48.2 °F 63% 30.31 in 10.0 mi ENE 12.7 mph 21.9 mph N/A   Scattered Clouds
6:15 PM 60.8 °F 48.2 °F 63% 30.30 in 10.0 mi ENE 15.0 mph 23.0 mph N/A   Mostly Cloudy
6:35 PM 59.0 °F 48.2 °F 67% 30.30 in 10.0 mi ENE 16.1 mph 27.6 mph N/A   Mostly Cloudy
6:55 PM 59.0 °F 48.2 °F 67% 30.29 in 10.0 mi ENE 15.0 mph 19.6 mph N/A   Mostly Cloudy
7:15 PM 59.0 °F 48.2 °F 67% 30.28 in 10.0 mi ENE 13.8 mph 19.6 mph N/A   Scattered Clouds
7:35 PM 59.0 °F 48.2 °F 67% 30.28 in 10.0 mi ENE 16.1 mph 24.2 mph N/A   Scattered Clouds
7:55 PM 59.0 °F 48.2 °F 67% 30.29 in 10.0 mi East 11.5 mph 23.0 mph N/A   Partly Cloudy
8:15 PM 59.0 °F 48.2 °F 67% 30.28 in 10.0 mi ENE 10.4 mph 21.9 mph N/A   Scattered Clouds
8:35 PM 59.0 °F 48.2 °F 67% 30.28 in 10.0 mi ENE 15.0 mph 25.3 mph N/A   Mostly Cloudy
8:55 PM 59.0 °F 48.2 °F 67% 30.28 in 10.0 mi ENE 15.0 mph 20.7 mph N/A   Mostly Cloudy
9:15 PM 59.0 °F 48.2 °F 67% 30.28 in 10.0 mi ENE 10.4 mph 21.9 mph N/A   Mostly Cloudy
9:35 PM 59.0 °F 48.2 °F 67% 30.27 in 10.0 mi ENE 13.8 mph 23.0 mph N/A   Mostly Cloudy
9:55 PM 59.0 °F 48.2 °F 67% 30.27 in 10.0 mi ENE 12.7 mph 23.0 mph N/A   Scattered Clouds
10:15 PM 59.0 °F 48.2 °F 67% 30.27 in 10.0 mi ENE 13.8 mph 21.9 mph N/A   Mostly Cloudy
10:35 PM 59.0 °F 48.2 °F 67% 30.26 in 10.0 mi ENE 11.5 mph 19.6 mph N/A   Overcast
10:55 PM 59.0 °F 48.2 °F 67% 30.25 in 10.0 mi NE 13.8 mph 20.7 mph N/A   Overcast
11:15 PM 59.0 °F 48.2 °F 67% 30.25 in 10.0 mi ENE 15.0 mph 25.3 mph N/A   Overcast
11:35 PM 59.0 °F 50.0 °F 72% 30.25 in 10.0 mi ENE 10.4 mph 19.6 mph N/A   Overcast
11:55 PM 59.0 °F 50.0 °F 72% 30.25 in 10.0 mi ENE 9.2 mph 19.6 mph N/A   Overcast